Lake Tohopekaliga Weather Center

Moon Phase Calendar



Lake Tohopekaliga Water Level
Online Cameras

 


      

Current Conditions in Campbell
8/11/2022 2:55:12 PM

89°F
Feels Like 100
Clouds
Humidity
63%
Pressure
30.12"
Wind
8 mph (WSW)
Dew Point
75°F
UV Index
8/10 (Very High)
Visibility
6 mi

Hourly Forecast

Date & Time Thu, Aug 11
2:00 PM
Thu, Aug 11
3:00 PM
Thu, Aug 11
4:00 PM
Thu, Aug 11
5:00 PM
Thu, Aug 11
6:00 PM
Thu, Aug 11
7:00 PM
Thu, Aug 11
8:00 PM
Thu, Aug 11
9:00 PM
Thu, Aug 11
10:00 PM
Thu, Aug 11
11:00 PM
Fri, Aug 12
12:00 AM
Fri, Aug 12
1:00 AM
Fri, Aug 12
2:00 AM
Fri, Aug 12
3:00 AM
Fri, Aug 12
4:00 AM
Fri, Aug 12
5:00 AM
Fri, Aug 12
6:00 AM
Fri, Aug 12
7:00 AM
Fri, Aug 12
8:00 AM
Fri, Aug 12
9:00 AM
Fri, Aug 12
10:00 AM
Fri, Aug 12
11:00 AM
Fri, Aug 12
12:00 PM
Fri, Aug 12
1:00 PM
Fri, Aug 12
2:00 PM
Fri, Aug 12
3:00 PM
Fri, Aug 12
4:00 PM
Fri, Aug 12
5:00 PM
Fri, Aug 12
6:00 PM
Fri, Aug 12
7:00 PM
Fri, Aug 12
8:00 PM
Fri, Aug 12
9:00 PM
Fri, Aug 12
10:00 PM
Fri, Aug 12
11:00 PM
Sat, Aug 13
12:00 AM
Sat, Aug 13
1:00 AM
Sat, Aug 13
2:00 AM
Sat, Aug 13
3:00 AM
Sat, Aug 13
4:00 AM
Sat, Aug 13
5:00 AM
Sat, Aug 13
6:00 AM
Sat, Aug 13
7:00 AM
Sat, Aug 13
8:00 AM
Sat, Aug 13
9:00 AM
Sat, Aug 13
10:00 AM
Sat, Aug 13
11:00 AM
Sat, Aug 13
12:00 PM
Sat, Aug 13
1:00 PM
Condition
Clouds

Clouds

Clouds

Clouds

Rain

Rain

Rain

Rain

Clouds

Clouds

Clouds

Clouds

Clouds

Clouds

Clouds

Clouds

Clouds

Clouds

Clouds

Clouds

Clouds

Clouds

Clouds

Clouds

Clouds

Clouds

Clouds

Clouds

Clouds

Rain

Rain

Rain

Rain

Rain

Rain

Rain

Rain

Rain

Rain

Rain

Clouds

Clouds

Clouds

Clouds

Clouds

Clouds

Clouds

Clouds
Temperature 90°F89°F89°F89°F82°F77°F68°F70°F73°F74°F73°F73°F72°F73°F72°F72°F72°F72°F75°F79°F82°F85°F88°F90°F92°F92°F92°F90°F90°F85°F78°F76°F76°F77°F77°F77°F77°F76°F76°F75°F75°F74°F77°F80°F83°F86°F88°F90°F
Feels Like 100°F100°F99°F97°F87°F78°F69°F70°F74°F75°F74°F74°F73°F74°F74°F73°F74°F74°F76°F80°F88°F91°F93°F94°F95°F95°F95°F94°F93°F90°F79°F77°F78°F78°F78°F78°F78°F78°F77°F76°F76°F76°F78°F80°F88°F90°F93°F95°F
Cloudiness 51%40%52%64%76%88%100%100%100%100%100%100%100%97%90%80%77%80%80%77%82%86%88%87%88%84%79%81%74%74%76%93%83%83%83%84%85%96%97%86%74%62%56%13%11%18%23%23%
Visibility 6 mi6 mi6 mi6 mi6 mi4 mi6 mi6 mi6 mi6 mi6 mi6 mi6 mi6 mi6 mi6 mi6 mi6 mi6 mi6 mi6 mi6 mi6 mi6 mi6 mi6 mi6 mi6 mi6 mi6 mi6 mi6 mi6 mi6 mi6 mi6 mi6 mi6 mi6 mi6 mi6 mi6 mi6 mi6 mi6 mi6 mi6 mi6 mi
Precipitation 20%15%37%49%82%87%92%87%84%84%77%68%67%0%0%0%0%0%0%0%3%5%5%5%5%0%0%0%5%24%44%94%100%95%91%91%91%22%40%36%16%12%12%0%0%0%0%0%
Humidity 59%63%62%61%70%81%93%87%76%74%79%84%87%89%92%94%96%96%92%84%75%63%54%48%44%42%44%47%49%61%79%88%87%85%84%83%82%83%85%85%85%86%82%74%66%59%54%51%
Dew Point 74°F75°F75°F74°F72°F71°F66°F65°F65°F65°F66°F68°F68°F69°F70°F70°F71°F71°F72°F73°F73°F71°F70°F68°F67°F66°F66°F67°F68°F70°F71°F72°F72°F72°F71°F71°F71°F71°F71°F70°F70°F70°F71°F71°F70°F70°F70°F69°F
Pressure 30.12"30.12"30.09"30.06"30.06"30.06"30.09"30.09"30.06"30.09"30.06"30.06"30.06"30.06"30.03"30.03"30.03"30.06"30.06"30.09"30.09"30.09"30.06"30.03"30.03"30"29.97"29.97"29.97"29.97"30"30"30.03"30.03"30.03"30.03"30"30"30"30"30"30"30"30.03"30.03"30.03"30.03"30"
Wind Speed 5 mph6 mph7.1 mph4.9 mph3.9 mph6.5 mph14.7 mph10.2 mph4 mph5.6 mph6.7 mph6.5 mph5.2 mph4.1 mph4 mph3.1 mph3.4 mph3 mph3 mph4.5 mph5.8 mph6.4 mph6 mph5.1 mph3.3 mph1 mph3.5 mph4.9 mph4.1 mph3.3 mph6.7 mph5.6 mph2.7 mph2.2 mph0.7 mph1 mph1.4 mph2 mph2 mph1.7 mph1 mph0.8 mph0.8 mph1.5 mph1.9 mph3.2 mph3.1 mph4 mph
Wind
Direction
177°
S
190°
S
189°
S
111°
ESE
91°
E
259°
W
310°
NW
329°
NNW
348°
NNW
90°
E
112°
ESE
103°
ESE
83°
E
99°
E
101°
E
99°
E
81°
E
64°
ENE
85°
E
99°
E
116°
ESE
130°
SE
130°
SE
132°
SE
138°
SE
216°
SW
280°
W
273°
W
296°
WNW
20°
NNE
60°
ENE
84°
E
60°
ENE
44°
NE
53°
NE
199°
SSW
216°
SW
181°
S
188°
S
195°
SSW
230°
SW
245°
WSW
202°
SSW
217°
SW
190°
S
191°
S
209°
SSW
213°
SSW

Daily Forecast

Date High Low Precip. Humidity
Today
Aug 11

Rain
91 °F
68 °F
92%
57%
Friday
Aug 12

Rain
92 °F
72 °F
100%
48%
Saturday
Aug 13

Rain
92 °F
74 °F
95%
47%
Sunday
Aug 14

Rain
91 °F
74 °F
100%
44%
Monday
Aug 15

Rain
91 °F
75 °F
100%
48%
Tuesday
Aug 16

Rain
92 °F
75 °F
67%
47%
Wednesday
Aug 17

Clouds
93 °F
77 °F
14%
46%
Thursday
Aug 18

Clouds
94 °F
76 °F
12%
44%
Friday
Aug 19

Rain
94 °F
72 °F
100%
46%
Saturday
Aug 20

Rain
92 °F
74 °F
100%
49%
Sunday
Aug 21

Rain
92 °F
73 °F
100%
52%
Monday
Aug 22

Rain
88 °F
74 °F
100%
57%
Tuesday
Aug 23

Rain
91 °F
75 °F
80%
48%
Wednesday
Aug 24

Rain
91 °F
74 °F
96%
48%
Thursday
Aug 25

Rain
93 °F
75 °F
100%
50%
Friday
Aug 26

Rain
93 °F
77 °F
100%
50%

Temperature 8-14 Day Outlook



Precipitation 8-14 Day Outlook




Quick Links
Lake Tohopekaliga News
Lake Tohopekaliga Photos
Lake Tohopekaliga Videos




About Us
Contact Us
Site Map
Search Site
Advertise With Us
   
Tohopekaliga.USLakes.info
THE LAKE TOHOPEKALIGA WEBSITE

Copyright 2022, Lakes Online
Privacy    |    Legal